This demonstration page uses our WeatherBlox Daily Observations layout. Learn more.

Left ArrowRight Arrow

Hourly Observations for December 20, 2019

Temp ( °F °C ) Dew Point ( °F °C ) Humidity (%) Winds ( mph kmh ) Pressure ( in mb ) Visibility ( mi km ) Precip ( " mm )
12:56 am 00:56 Clear 29 -1.7 17 -8.3 61 61 N 3 6 30.08 1019 10 16 0.00 0.00
1:56 am 01:56 Clear 29 -1.7 17 -8.3 61 61 W 3 6 30.07 1018 10 16 0.00 0.00
2:56 am 02:56 Clear 27 -2.8 17 -8.3 66 66 Calm 30.10 1019 10 16 0.00 0.00
3:56 am 03:56 Clear 26 -3.3 18 -7.8 71 71 NW 5 7 30.11 1020 10 16 0.00 0.00
4:56 am 04:56 Clear 26 -3.3 21 -6.1 81 81 NNW 7 11 30.14 1021 10 16 0.00 0.00
5:56 am 05:56 Clear 24 -4.4 20 -6.7 84 84 NNW 7 11 30.16 1021 10 16 0.00 0.00
6:56 am 06:56 Clear 24 -4.4 20 -6.7 84 84 NNW 12 19 30.19 1022 10 16 0.00 0.00
7:56 am 07:56 Sunny 23 -5 19 -7.2 85 85 NW 3 6 30.20 1023 10 16 0.00 0.00
8:56 am 08:56 Sunny 25 -3.9 20 -6.7 81 81 NW 5 7 30.21 1023 10 16 0.00 0.00
9:56 am 09:56 Sunny 31 -0.6 24 -4.4 76 76 NNW 3 6 30.24 1024 10 16 0.00 0.00
10:56 am 10:56 Sunny 37 2.8 23 -5 57 57 NNW 9 15 30.25 1024 10 16 0.00 0.00
11:56 am 11:56 Sunny 41 5 23 -5 49 49 NNW 8 13 30.23 1024 10 16 0.00 0.00
12:56 pm 12:56 Sunny 45 7.2 20 -6.7 37 37 NNW 9 15 30.21 1023 10 16 0.00 0.00
1:56 pm 13:56 Sunny 47 8.3 22 -5.6 37 37 NNW 10 17 30.21 1023 10 16 0.00 0.00
2:56 pm 14:56 Sunny 48 8.9 22 -5.6 36 36 N 5 7 30.21 1023 10 16 0.00 0.00
3:56 pm 15:56 Sunny 49 9.4 21 -6.1 33 33 Calm 30.22 1023 10 16 0.00 0.00
4:56 pm 16:56 Sunny 44 6.7 22 -5.6 41 41 Calm 30.26 1025 10 16 0.00 0.00
5:56 pm 17:56 Clear 39 3.9 22 -5.6 50 50 SSE 5 7 30.28 1025 10 16 0.00 0.00
6:56 pm 18:56 Clear 38 3.3 22 -5.6 52 52 SSW 5 7 30.29 1026 10 16 0.00 0.00
7:56 pm 19:56 Clear 33 0.6 21 -6.1 61 61 SSW 7 11 30.30 1026 10 16 0.00 0.00
8:56 pm 20:56 Clear 32 0 22 -5.6 66 66 SW 5 7 30.30 1026 10 16 0.00 0.00
9:56 pm 21:56 Clear 31 -0.6 23 -5 72 72 Calm 30.30 1026 10 16 0.00 0.00
10:56 pm 22:56 Clear 30 -1.1 23 -5 75 75 SW 8 13 30.29 1026 10 16 0.00 0.00
11:56 pm 23:56 Clear 30 -1.1 22 -5.6 72 72 SW 9 15 30.29 1026 10 16 0.00 0.00

Powered by AerisWeather